HELLAS-SAT 4 & SGS-1 (44034 NORAD) Tracking and Keplerian Element Data

This shows tracking and keplerian element data for the satellite.

Feedback or suggestion? Click here.




ElementValue
Catalog44034
NameHELLAS-SAT 4 & SGS-1
Epoch Orbit2235
Epoch Day34.54849133
Epoch Year2025
RAAN122.1152
Inclination0.0704
Eccentricity0.0002747
Argument of Perigee44.5651
Mean Anonmoly203.6988
Mean Motion1.00271198
Decay Rate1.57E-06
L11 44034U 19007A 25034.54849133 .00000157 00000+0 00000+0 0 9994
L22 44034 0.0704 122.1152 0002747 44.5651 203.6988 1.00271198 22354



Live tracking and technical data element details for HELLAS-SAT 4 & SGS-1 (NORAD 44034). HELLAS-SAT 4 & SGS-1 can be tracked NOW for your location showing map with azimuth and elevation plus other details from your city location.







IsCatalogInMostPopularTable: catalog: 44034, numindb: 700
Update: records affected: 1



GetName: 44034 HELLAS-SAT 4 & SGS-1

Hit Count: updated at: Sat, 17 May 2025 08:49:46 GMT